Weather History for KBFW - July, 2013

Change the Weather History Date:

Friday, July 19, 2013

  Actual Average Record
Temperature  
Mean Temperature 67 °F -  
Max Temperature 77 °F 72 °F 87 °F (2004)
Min Temperature 57 °F 49 °F 37 °F (2000)
Cooling Degree Days 2    
Growing Degree Days 17 (Base 50)    
Moisture  
Dew Point 54 °F    
Average Humidity 61    
Maximum Humidity 88    
Minimum Humidity 29    
Precipitation  
Precipitation 0.00 in - - ()
Sea Level Pressure  
Sea Level Pressure 29.71 in    
Wind  
Wind Speed 2 mph (NW)    
Max Wind Speed 10 mph    
Max Gust Speed 18 mph    
Visibility 10 miles    
Events Rain , Thunderstorm    
Averages and records for this station are not official NWS values.
T = Trace of Precipitation, MM = Missing Value Source: NWS Daily Summary

Daily Weather History Graph

Daily Weather History Graph

Search for Another Location

Airport or City:

Trip Planner

Search our weather history database for the weather conditions in past years. The results will help you decide how hot, cold, wet, or windy it might be!

Date:

Astronomy

Jul. 19, 2013 Rise Set
Actual Time 5:29 AM CDT 8:54 PM CDT
Civil Twilight 4:51 AM CDT 9:31 PM CDT
Nautical Twilight 4:01 AM CDT 10:21 PM CDT
Astronomical Twilight 2:56 AM CDT 11:25 PM CDT
Moon 5:56 PM CDT (7/19) 2:12 AM CDT (7/19)
Length of Visible Light 16h 40m
Length of Day
15h 24m
Waxing Gibbous, 87% of the Moon is Illuminated
Jul 19
Waxing Gibbous
Jul 22
Full
Jul 29
Last Quarter
Aug 6
New
Aug 14
First Quarter

Hourly Weather History & Observations

Time (CDT) Temp. Dew Point Humidity Pressure Visibility Wind Dir Wind Speed Gust Speed Precip Events Conditions
12:13 AM 69.8 °F 60.8 °F 73% 29.69 in 10.0 mi Calm Calm - N/A   Scattered Clouds
12:33 AM 66.2 °F 62.6 °F 88% 29.64 in 10.0 mi Calm Calm - 0.12 in Rain , Thunderstorm Light Thunderstorms and Rain
12:53 AM 66.2 °F 62.6 °F 88% 29.62 in 10.0 mi Calm Calm - N/A   Scattered Clouds
1:13 AM 66.2 °F 60.8 °F 83% 29.64 in 10.0 mi Calm Calm - N/A   Scattered Clouds
1:33 AM 66.2 °F 60.8 °F 83% 29.62 in 10.0 mi Calm Calm - N/A Rain , Thunderstorm Light Thunderstorms and Rain
1:53 AM 66.2 °F 60.8 °F 83% 29.61 in 10.0 mi Calm Calm - N/A   Scattered Clouds
2:13 AM 64.4 °F 60.8 °F 88% 29.59 in 10.0 mi Calm Calm - N/A   Clear
2:33 AM 64.4 °F 60.8 °F 88% 29.59 in 10.0 mi Calm Calm - N/A   Clear
2:53 AM 66.2 °F 60.8 °F 83% 29.59 in 10.0 mi Calm Calm - N/A   Clear
3:13 AM 66.2 °F 60.8 °F 83% 29.59 in 10.0 mi WNW 3.5 mph - N/A   Clear
3:33 AM 66.2 °F 60.8 °F 83% 29.59 in 10.0 mi Calm Calm - N/A   Clear
3:53 AM 64.4 °F 60.8 °F 88% 29.59 in 10.0 mi Calm Calm - N/A   Clear
4:13 AM 64.4 °F 60.8 °F 88% 29.59 in 10.0 mi Calm Calm - N/A   Clear
4:33 AM 64.4 °F 60.8 °F 88% 29.59 in 10.0 mi Calm Calm - N/A   Clear
4:53 AM 64.4 °F 60.8 °F 88% 29.60 in 10.0 mi Calm Calm - N/A   Clear
5:13 AM 66.2 °F 60.8 °F 83% 29.60 in 10.0 mi Calm Calm - N/A   Clear
5:33 AM 66.2 °F 62.6 °F 88% 29.61 in 10.0 mi Calm Calm - N/A   Scattered Clouds
5:53 AM 66.2 °F 62.6 °F 88% 29.62 in 10.0 mi Calm Calm - N/A Rain Light Rain
6:13 AM 66.2 °F 62.6 °F 88% 29.62 in 10.0 mi Calm Calm - N/A   Scattered Clouds
6:33 AM 68.0 °F 62.6 °F 83% 29.63 in 10.0 mi Calm Calm - N/A   Clear
6:53 AM 69.8 °F 60.8 °F 73% 29.63 in 10.0 mi NW 6.9 mph - N/A   Clear
7:13 AM 69.8 °F 60.8 °F 73% 29.64 in 10.0 mi NNW 6.9 mph - N/A   Clear
7:33 AM 69.8 °F 60.8 °F 73% 29.65 in 10.0 mi NW 5.8 mph - N/A   Clear
7:53 AM 69.8 °F 60.8 °F 73% 29.66 in 10.0 mi NW 4.6 mph - N/A   Clear
8:13 AM 71.6 °F 59.0 °F 64% 29.67 in 10.0 mi NNW 6.9 mph - N/A   Clear
8:33 AM 71.6 °F 57.2 °F 60% 29.68 in 10.0 mi Calm Calm - N/A   Clear
8:53 AM 71.6 °F 57.2 °F 60% 29.69 in 10.0 mi Calm Calm - N/A   Clear
9:13 AM 71.6 °F 57.2 °F 60% 29.70 in 10.0 mi NNW 3.5 mph - N/A   Clear
9:33 AM 71.6 °F 57.2 °F 60% 29.71 in 10.0 mi NW 5.8 mph - N/A   Clear
9:53 AM 69.8 °F 55.4 °F 60% 29.72 in 10.0 mi WNW 3.5 mph - N/A   Clear
10:13 AM 71.6 °F 53.6 °F 53% 29.72 in 10.0 mi NNW 6.9 mph 18.4 mph N/A   Clear
10:33 AM 71.6 °F 53.6 °F 53% 29.73 in 10.0 mi NNW 4.6 mph 16.1 mph N/A   Clear
10:54 AM 71.6 °F 53.6 °F 53% 29.73 in 10.0 mi NW 9.2 mph 16.1 mph N/A   Clear
11:13 AM 73.4 °F 53.6 °F 50% 29.73 in 10.0 mi NNW 4.6 mph 16.1 mph N/A   Clear
11:33 AM 73.4 °F 53.6 °F 50% 29.74 in 10.0 mi West 6.9 mph 18.4 mph N/A   Clear
11:53 AM 73.4 °F 50.0 °F 44% 29.74 in 10.0 mi NW 10.4 mph - N/A   Clear
12:13 PM 75.2 °F 50.0 °F 41% 29.75 in 10.0 mi NW 6.9 mph 18.4 mph N/A   Clear
12:33 PM 75.2 °F 50.0 °F 41% 29.75 in 10.0 mi WNW 5.8 mph 16.1 mph N/A   Clear
12:53 PM 75.2 °F 48.2 °F 38% 29.75 in 10.0 mi WNW 10.4 mph 18.4 mph N/A   Clear
1:14 PM 75.2 °F 48.2 °F 38% 29.75 in 10.0 mi West 4.6 mph 18.4 mph N/A   Clear
1:34 PM 75.2 °F 50.0 °F 41% 29.75 in 10.0 mi West 6.9 mph - N/A   Clear
1:53 PM 75.2 °F 46.4 °F 36% 29.75 in 10.0 mi NW 9.2 mph 18.4 mph N/A   Clear
2:13 PM 77.0 °F 44.6 °F 32% 29.75 in 10.0 mi West 6.9 mph 17.3 mph N/A   Clear
2:33 PM 75.2 °F 44.6 °F 34% 29.76 in 10.0 mi Calm Calm - N/A   Clear
2:53 PM 75.2 °F 46.4 °F 36% 29.76 in 10.0 mi NW 4.6 mph - N/A   Scattered Clouds
3:13 PM 75.2 °F 44.6 °F 34% 29.76 in 10.0 mi NW 3.5 mph - N/A   Scattered Clouds
3:33 PM 77.0 °F 42.8 °F 29% 29.76 in 10.0 mi Calm Calm - N/A   Scattered Clouds
3:53 PM 77.0 °F 44.6 °F 32% 29.76 in 10.0 mi NW 6.9 mph - N/A   Scattered Clouds
4:13 PM 75.2 °F 42.8 °F 31% 29.76 in 10.0 mi Calm Calm - N/A   Scattered Clouds
4:33 PM 75.2 °F 42.8 °F 31% 29.77 in 10.0 mi WNW 3.5 mph - N/A   Clear
4:53 PM 75.2 °F 44.6 °F 34% 29.76 in 10.0 mi Calm Calm - N/A   Clear
5:13 PM 75.2 °F 42.8 °F 31% 29.76 in 10.0 mi West 5.8 mph - N/A   Clear
5:33 PM 75.2 °F 44.6 °F 34% 29.76 in 10.0 mi West 5.8 mph - N/A   Clear
5:53 PM 75.2 °F 44.6 °F 34% 29.76 in 10.0 mi Calm Calm - N/A   Clear
6:13 PM 75.2 °F 44.6 °F 34% 29.75 in 10.0 mi Calm Calm - N/A   Scattered Clouds
6:33 PM 73.4 °F 46.4 °F 38% 29.75 in 10.0 mi Calm Calm - N/A   Scattered Clouds
6:54 PM 73.4 °F 46.4 °F 38% 29.75 in 10.0 mi Calm Calm - N/A   Mostly Cloudy
7:13 PM 73.4 °F 46.4 °F 38% 29.75 in 10.0 mi Calm Calm - N/A   Scattered Clouds
7:33 PM 71.6 °F 48.2 °F 43% 29.75 in 10.0 mi Calm Calm - N/A   Scattered Clouds
7:53 PM 69.8 °F 51.8 °F 53% 29.75 in 10.0 mi Calm Calm - N/A   Scattered Clouds
8:13 PM 68.0 °F 53.6 °F 60% 29.75 in 10.0 mi Calm Calm - N/A   Mostly Cloudy
8:33 PM 69.8 °F 50.0 °F 49% 29.76 in 10.0 mi Calm Calm - N/A   Mostly Cloudy
8:53 PM 68.0 °F 51.8 °F 56% 29.76 in 10.0 mi Calm Calm - N/A   Scattered Clouds
9:13 PM 66.2 °F 51.8 °F 60% 29.77 in 10.0 mi Calm Calm - N/A   Clear
9:33 PM 62.6 °F 51.8 °F 68% 29.78 in 10.0 mi Calm Calm - N/A   Clear
9:53 PM 62.6 °F 53.6 °F 72% 29.78 in 10.0 mi Calm Calm - N/A   Clear
10:13 PM 60.8 °F 51.8 °F 72% 29.79 in 10.0 mi Calm Calm - N/A   Clear
10:33 PM 60.8 °F 51.8 °F 72% 29.79 in 10.0 mi Calm Calm - N/A   Clear
10:53 PM 60.8 °F 51.8 °F 72% 29.79 in 10.0 mi Calm Calm - N/A   Clear
11:13 PM 59.0 °F 51.8 °F 77% 29.79 in 10.0 mi Calm Calm - N/A   Clear
11:33 PM 57.2 °F 51.8 °F 82% 29.80 in 10.0 mi Calm Calm - N/A   Clear
11:53 PM 57.2 °F 51.8 °F 82% 29.82 in 10.0 mi Calm Calm - N/A   Clear